M7VJL-13 Weather Reports


time (UTC)temp
C
wind
direction
speed
KPH
gust
KPH
rain 1hr
cm
rain 24hr
cm
rain mn
cm
humidity
%
barometer
mb
20260510183008 9 208 1.6 11.3 0.00 0.00 0.00 60 1015.8
20260510181511 10 199 3.2 9.7 0.00 0.00 0.00 60 1015.9
20260510180016 10 42 1.6 11.3 0.00 0.00 0.00 59 1015.8
20260510174504 10 360 4.8 14.5 0.00 0.00 0.00 57 1015.9
20260510173004 10 90 3.2 12.9 0.00 0.00 0.00 59 1016.0
20260510171507 10 82 1.6 12.9 0.00 0.00 0.00 60 1016.1
20260510170015 10 121 3.2 11.3 0.00 0.00 0.00 60 1016.2
20260510164518 10 130 4.8 14.5 0.00 0.00 0.00 58 1016.4
20260510163023 10 121 1.6 12.9 0.00 0.00 0.00 60 1016.5
20260510161508 10 141 4.8 16.1 0.00 0.00 0.00 60 1016.6
20260510160011 11 290 3.2 12.9 0.00 0.00 0.00 60 1016.8
20260510154514 11 355 4.8 14.5 0.00 0.00 0.00 60 1017.0
20260510153019 11 78 4.8 16.1 0.00 0.00 0.00 61 1017.0
20260510151525 11 136 3.2 14.5 0.00 0.00 0.00 61 1017.2
20260510150008 11 146 3.2 14.5 0.00 0.00 0.00 61 1017.3
20260510144511 11 334 1.6 12.9 0.00 0.00 0.00 61 1017.3
20260510143016 11 130 1.6 14.5 0.00 0.00 0.00 61 1017.5
20260510141525 12 62 4.8 12.9 0.00 0.00 0.00 61 1017.6
20260510140023 11 110 3.2 19.3 0.00 0.00 0.00 62 1017.7
20260510134511 12 142 4.8 16.1 0.00 0.00 0.00 59 1017.7
20260510133020 12 159 4.8 14.5 0.00 0.00 0.00 60 1017.8
20260510131520 12 360 3.2 14.5 0.00 0.00 0.00 59 1018.1
20260510130024 12 65 3.2 19.3 0.00 0.00 0.00 60 1018.2
20260510124530 12 360 4.8 16.1 0.00 0.00 0.00 60 1018.3
20260510123014 12 41 6.4 16.1 0.00 0.00 0.00 62 1018.5
20260510121516 12 72 6.4 17.7 0.00 0.00 0.00 59 1018.5
20260510120004 11 298 4.8 17.7 0.00 0.00 0.00 65 1018.7
20260510114508 12 20 3.2 12.9 0.00 0.00 0.00 66 1018.9
20260510113010 11 214 4.8 19.3 0.00 0.00 0.00 68 1019.1
20260510111515 11 51 3.2 16.1 0.00 0.00 0.00 68 1019.3
20260510110006 11 285 3.2 14.5 0.00 0.00 0.00 67 1019.3
20260510104504 11 113 3.2 11.3 0.00 0.00 0.00 69 1019.3
20260510103008 11 341 4.8 14.5 0.00 0.00 0.00 69 1019.5
20260510101513 11 117 3.2 12.9 0.00 0.00 0.00 69 1019.6
20260510094517 10 44 3.2 17.7 0.00 0.00 0.00 71 1019.8
20260510093004 10 315 3.2 14.5 0.00 0.00 0.00 72 1019.9
20260510084520 10 342 3.2 11.3 0.00 0.00 0.00 76 1020.0
20260510083004 10 318 3.2 14.5 0.00 0.00 0.00 77 1020.0
20260510081508 9 121 3.2 14.5 0.00 0.00 0.00 79 1020.0
20260510080009 9 152 4.8 14.5 0.00 0.00 0.00 80 1019.9
20260510074517 9 355 3.2 11.3 0.00 0.00 0.00 80 1019.9
20260510073021 9 21 3.2 12.9 0.00 0.00 0.00 79 1019.9
20260510071505 9 278 4.8 17.7 0.00 0.00 0.00 79 1019.8
20260510063017 8 313 3.2 12.9 0.00 0.00 0.00 81 1019.6
20260510061529 8 288 4.8 17.7 0.00 0.00 0.00 81 1019.6
20260510060041 8 150 1.6 12.9 0.00 0.00 0.00 82 1019.6
20260510054511 8 191 4.8 16.1 0.00 0.00 0.00 83 1019.6
20260510051521 8 247 3.2 12.9 0.00 0.00 0.00 84 1019.4
20260510050023 8 290 4.8 11.3 0.00 0.00 0.00 84 1019.5
20260510044526 8 35 3.2 14.5 0.00 0.00 0.00 84 1019.2
20260510040021 8 301 3.2 22.5 0.00 0.00 0.00 86 1019.4
20260510034523 8 338 4.8 19.3 0.00 0.00 0.00 87 1019.3
20260510033026 9 290 6.4 17.7 0.00 0.00 0.00 87 1019.4
20260510030003 8 298 4.8 16.1 0.00 0.00 0.00 88 1019.7
20260510021511 8 290 3.2 11.3 0.00 0.00 0.00 89 1019.8
20260510014504 9 317 3.2 14.5 0.00 0.00 0.00 88 1019.7
20260510004520 8 53 3.2 12.9 0.00 0.00 0.00 91 1019.7
20260510003005 8 306 3.2 14.5 0.00 0.00 0.00 92 1019.8
20260510001507 7 313 1.6 12.9 0.00 0.00 0.00 91 1020.0
20260510000011 7 350 1.6 11.3 0.00 0.00 0.00 91 1020.0
20260509234520 7 302 1.6 11.3 0.00 0.00 0.00 91 1020.2
20260509233022 7 323 1.6 6.4 0.00 0.00 0.00 90 1020.4
20260509230011 7 313 0.0 6.4 0.00 0.00 0.00 89 1020.2
20260509224515 8 283 0.0 6.4 0.00 0.00 0.00 88 1020.1
20260509221525 8 275 0.0 8.0 0.00 0.00 0.00 87 1020.0
20260509220026 8 11 0.0 11.3 0.00 0.00 0.00 85 1019.8
20260509214513 8 5 1.6 9.7 0.00 0.00 0.00 83 1019.5
20260509211545 10 326 0.0 12.9 0.00 0.00 0.00 80 1019.5
20260509210021 10 24 3.2 12.9 0.00 0.00 0.00 79 1019.5
20260509204526 10 26 0.0 9.7 0.00 0.00 0.00 77 1019.6
20260509201504 11 325 0.0 6.4 0.00 0.00 0.00 72 1019.1
20260509200003 11 72 1.6 6.4 0.00 0.00 0.00 70 1019.1
20260509194504 11 50 0.0 12.9 0.00 0.00 0.00 67 1018.7
20260509193004 12 76 0.0 6.4 0.00 0.00 0.00 65 1018.6
20260509191504 13 66 1.6 12.9 0.00 0.00 0.00 60 1018.5
20260509190003 13 224 1.6 6.4 0.00 0.00 0.00 57 1018.2
20260509184503 15 67 1.6 12.9 0.00 0.00 0.00 54 1018.1